Orbital Elements at Epoch 2459200.5 (2020-Dec-17.0) TDB
Reference: JPL 26 (heliocentric ecliptic J2000)
Element | Value | Uncertainty (1-sigma) | Units |
e | .1640946456422329 | 3.1121e-08 | |
a | 2.329834553957374 | 7.5117e-09 | au |
q | 1.947521178420709 | 7.2696e-08 | au |
i | 5.078180426071802 | 4.5496e-06 | deg |
node | 174.683345989043 | 3.75e-05 | deg |
peri | 259.8955824443331 | 4.0165e-05 | deg |
M | 189.1159717272657 | 1.3244e-05 | deg |
tp | 2459817.073737458210 (2022-Aug-25.57373746) | 4.8388e-05 | TDB |
period | 1298.930904945035 3.56 | 6.2819e-06 1.72e-08 | d yr |
n | .2771510005878517 | 1.3404e-09 | deg/d |
Q | 2.712147929494039 | 8.7443e-09 | au |
|
| | Orbit Determination Parameters
Additional Information
|